Location: Laterina
(43.5167°N, 11.7167°E)
Time: 16:41:28
(UTC+00:00)

H-2A R/B - Pass Details

Date: 24 September 2020
Orbit: 734 x 836 km, 98.2° (Epoch: 25 October)

Event Time Altitude Azimuth Distance (km) Brightness Sun altitude
Rises 17:45:42 0° 149° (SSE) 3,174 4.8 -8.0°
Reaches altitude 10° 17:48:01 10° 143° (SE) 2,265 4.0 -8.4°
Maximum altitude 17:52:47 48° 70° (ENE) 996 2.3 -9.2°
Drops below altitude 10° 17:57:42 10° 358° (N) 2,338 4.7 -10.1°
Sets 18:00:07 0° 353° (N) 3,287 5.5 -10.6°
